• In Belgien
  • Länderverzeichnis
  • Für 7 Tage
  • Wassertemperatur
  • Satellitenkarten
  • Wetterkarte
  • Widgets
  • user-avatar
    Anmelden

    Stündliche Wetter Albany

    Heute, 17 Juli, Dienstag

    Zeit Temperatur Niederschläge Wind Luftdruck Luftfeuchtigkeit
    00:00 +9°C° 0 mm 8 m/S 755 mmHg 67%
    01:00 +9°C° 0 mm 8 m/S 755 mmHg 69%
    02:00 +9°C° 0 mm 7 m/S 755 mmHg 72%
    03:00 +9°C° 0 mm 7 m/S 755 mmHg 74%
    04:00 +9°C° 0 mm 7 m/S 755 mmHg 75%
    05:00 +9°C° 0 mm 7 m/S 755 mmHg 77%
    06:00 +9°C° 0,1 mm 7 m/S 755 mmHg 78%
    07:00 +9°C° 0,1 mm 7 m/S 755 mmHg 79%
    08:00 +9°C° 0,1 mm 8 m/S 755 mmHg 80%
    09:00 +11°C° 0,1 mm 8 m/S 755 mmHg 74%
    10:00 +12°C° 0,1 mm 9 m/S 755 mmHg 69%
    11:00 +13°C° 0,1 mm 10 m/S 755 mmHg 63%
    12:00 +14°C° 0 mm 10 m/S 754 mmHg 62%
    13:00 +14°C° 0 mm 10 m/S 754 mmHg 61%
    14:00 +14°C° 0 mm 11 m/S 753 mmHg 60%
    15:00 +14°C° 0,1 mm 11 m/S 754 mmHg 63%
    16:00 +13°C° 0,1 mm 11 m/S 754 mmHg 65%
    17:00 +13°C° 0,1 mm 11 m/S 754 mmHg 68%
    18:00 +13°C° 0,1 mm 11 m/S 754 mmHg 70%
    19:00 +12°C° 0,1 mm 10 m/S 754 mmHg 73%
    20:00 +12°C° 0,1 mm 10 m/S 754 mmHg 75%
    21:00 +12°C° 0,2 mm 10 m/S 754 mmHg 76%
    22:00 +12°C° 0,2 mm 10 m/S 754 mmHg 77%
    23:00 +12°C° 0,2 mm 10 m/S 754 mmHg 78%

    Morgen, 18 Juli, Mittwoch

    Zeit Temperatur Niederschläge Wind Luftdruck Luftfeuchtigkeit
    00:00 +12°C° 0,2 mm 10 m/S 754 mmHg 79%
    01:00 +12°C° 0,2 mm 9 m/S 754 mmHg 79%
    02:00 +12°C° 0,2 mm 9 m/S 754 mmHg 79%
    03:00 +12°C° 0,3 mm 9 m/S 754 mmHg 79%
    04:00 +12°C° 0,3 mm 9 m/S 754 mmHg 79%
    05:00 +12°C° 0,3 mm 9 m/S 754 mmHg 80%
    06:00 +11°C° 0,5 mm 9 m/S 754 mmHg 81%
    07:00 +11°C° 0,5 mm 8 m/S 755 mmHg 83%
    08:00 +11°C° 0,5 mm 8 m/S 755 mmHg 85%
    09:00 +11°C° 0,4 mm 8 m/S 756 mmHg 83%
    10:00 +11°C° 0,4 mm 8 m/S 756 mmHg 81%
    11:00 +11°C° 0,4 mm 8 m/S 757 mmHg 79%
    12:00 +12°C° 0,1 mm 8 m/S 757 mmHg 74%
    13:00 +12°C° 0,1 mm 8 m/S 757 mmHg 70%
    14:00 +12°C° 0,1 mm 8 m/S 757 mmHg 66%
    15:00 +12°C° 0,1 mm 7 m/S 757 mmHg 68%
    16:00 +11°C° 0,1 mm 7 m/S 758 mmHg 70%
    17:00 +10°C° 0,1 mm 7 m/S 758 mmHg 72%
    18:00 +10°C° 0,1 mm 7 m/S 759 mmHg 73%
    19:00 +10°C° 0,1 mm 7 m/S 760 mmHg 74%
    20:00 +9°C° 0,1 mm 7 m/S 760 mmHg 75%
    21:00 +9°C° 0,1 mm 6 m/S 761 mmHg 74%
    22:00 +9°C° 0,1 mm 6 m/S 761 mmHg 73%
    23:00 +9°C° 0,1 mm 6 m/S 762 mmHg 71%

    übermorgen, 19 Juli, Donnerstag

    Zeit Temperatur Niederschläge Wind Luftdruck Luftfeuchtigkeit
    00:00 +9°C° 0 mm 5 m/S 762 mmHg 72%
    01:00 +8°C° 0 mm 5 m/S 762 mmHg 72%
    02:00 +8°C° 0 mm 5 m/S 762 mmHg 72%
    03:00 +8°C° 0 mm 5 m/S 762 mmHg 72%
    04:00 +8°C° 0 mm 4 m/S 762 mmHg 72%
    05:00 +7°C° 0 mm 4 m/S 762 mmHg 72%
    06:00 +7°C° 0 mm 4 m/S 763 mmHg 72%
    07:00 +9°C° 0 mm 3 m/S 763 mmHg 73%
    08:00 +9°C° 0 mm 3 m/S 764 mmHg 73%
    09:00 +10°C° 0 mm 3 m/S 764 mmHg 70%
    10:00 +11°C° 0 mm 3 m/S 764 mmHg 66%
    11:00 +12°C° 0 mm 2 m/S 764 mmHg 63%
    12:00 +13°C° 0 mm 2 m/S 764 mmHg 60%
    13:00 +13°C° 0 mm 2 m/S 763 mmHg 57%
    14:00 +14°C° 0 mm 2 m/S 763 mmHg 55%
    15:00 +13°C° 0 mm 2 m/S 763 mmHg 57%
    16:00 +13°C° 0 mm 2 m/S 763 mmHg 58%
    17:00 +12°C° 0 mm 1 m/S 763 mmHg 60%
    18:00 +12°C° 0 mm 1 m/S 763 mmHg 64%
    19:00 +11°C° 0 mm 1 m/S 763 mmHg 67%
    20:00 +9°C° 0 mm 2 m/S 764 mmHg 70%
    21:00 +8°C° 0 mm 2 m/S 763 mmHg 72%
    22:00 +8°C° 0 mm 3 m/S 763 mmHg 74%
    23:00 +7°C° 0 mm 4 m/S 763 mmHg 76%

    20 Juli, Freitag

    Zeit Temperatur Niederschläge Wind Luftdruck Luftfeuchtigkeit
    00:00 +6°C° 0 mm 4 m/S 762 mmHg 75%
    01:00 +6°C° 0 mm 4 m/S 761 mmHg 74%
    02:00 +6°C° 0 mm 5 m/S 761 mmHg 74%
    03:00 +6°C° 0 mm 5 m/S 760 mmHg 72%
    04:00 +6°C° 0 mm 5 m/S 760 mmHg 70%
    05:00 +5°C° 0 mm 6 m/S 759 mmHg 69%
    06:00 +5°C° 0 mm 6 m/S 759 mmHg 68%
    07:00 +5°C° 0 mm 6 m/S 758 mmHg 67%
    08:00 +6°C° 0 mm 7 m/S 758 mmHg 66%
    09:00 +9°C° 0 mm 7 m/S 757 mmHg 62%
    10:00 +11°C° 0 mm 8 m/S 757 mmHg 57%
    11:00 +15°C° 0 mm 8 m/S 756 mmHg 53%
    12:00 +16°C° 0 mm 8 m/S 755 mmHg 54%
    13:00 +17°C° 0 mm 8 m/S 754 mmHg 55%
    14:00 +18°C° 0 mm 9 m/S 753 mmHg 56%
    15:00 +17°C° 0 mm 8 m/S 752 mmHg 60%
    16:00 +17°C° 0 mm 8 m/S 752 mmHg 64%
    17:00 +16°C° 0 mm 7 m/S 752 mmHg 68%
    18:00 +16°C° 0,1 mm 7 m/S 752 mmHg 72%
    19:00 +15°C° 0,1 mm 8 m/S 752 mmHg 75%
    20:00 +15°C° 0,1 mm 8 m/S 752 mmHg 79%
    21:00 +14°C° 0,1 mm 7 m/S 751 mmHg 81%
    22:00 +14°C° 0,1 mm 7 m/S 751 mmHg 82%
    23:00 +14°C° 0,1 mm 7 m/S 750 mmHg 84%

    21 Juli, Samstag

    Zeit Temperatur Niederschläge Wind Luftdruck Luftfeuchtigkeit
    00:00 +14°C° 0,2 mm 7 m/S 750 mmHg 83%
    01:00 +13°C° 0,2 mm 8 m/S 749 mmHg 83%
    02:00 +13°C° 0,2 mm 8 m/S 748 mmHg 82%
    03:00 +13°C° 0,3 mm 9 m/S 748 mmHg 81%
    04:00 +13°C° 0,3 mm 9 m/S 747 mmHg 80%
    05:00 +14°C° 0,3 mm 10 m/S 746 mmHg 78%
    06:00 +13°C° 1,8 mm 9 m/S 746 mmHg 82%
    07:00 +13°C° 1,8 mm 9 m/S 747 mmHg 86%
    08:00 +13°C° 1,8 mm 8 m/S 747 mmHg 90%
    09:00 +13°C° 0,2 mm 8 m/S 747 mmHg 85%
    10:00 +15°C° 0,2 mm 8 m/S 747 mmHg 80%
    11:00 +15°C° 0,2 mm 9 m/S 747 mmHg 74%
    12:00 +16°C° 0,1 mm 9 m/S 746 mmHg 68%
    13:00 +17°C° 0,1 mm 9 m/S 745 mmHg 62%
    14:00 +18°C° 0,1 mm 9 m/S 745 mmHg 56%
    15:00 +17°C° 0,1 mm 8 m/S 744 mmHg 59%
    16:00 +16°C° 0,1 mm 8 m/S 744 mmHg 63%
    17:00 +15°C° 0,1 mm 7 m/S 744 mmHg 66%
    18:00 +15°C° 0,1 mm 8 m/S 744 mmHg 70%
    19:00 +13°C° 0,1 mm 8 m/S 744 mmHg 74%
    20:00 +12°C° 0,1 mm 9 m/S 744 mmHg 78%
    21:00 +12°C° 0,2 mm 9 m/S 743 mmHg 77%
    22:00 +12°C° 0,2 mm 10 m/S 743 mmHg 76%
    23:00 +12°C° 0,2 mm 10 m/S 742 mmHg 75%

    22 Juli, Sonntag

    Zeit Temperatur Niederschläge Wind Luftdruck Luftfeuchtigkeit
    00:00 +12°C° 1,1 mm 11 m/S 741 mmHg 78%
    01:00 +11°C° 1,1 mm 11 m/S 741 mmHg 82%
    02:00 +10°C° 1,1 mm 12 m/S 740 mmHg 85%
    03:00 +9°C° 1,3 mm 12 m/S 741 mmHg 85%
    04:00 +8°C° 1,3 mm 12 m/S 741 mmHg 84%
    05:00 +7°C° 1,3 mm 13 m/S 741 mmHg 84%
    06:00 +7°C° 0,5 mm 13 m/S 743 mmHg 78%
    07:00 +7°C° 0,5 mm 13 m/S 744 mmHg 73%
    08:00 +7°C° 0,5 mm 13 m/S 745 mmHg 67%
    09:00 +7°C° 0,3 mm 12 m/S 745 mmHg 68%
    10:00 +7°C° 0,3 mm 11 m/S 746 mmHg 68%
    11:00 +7°C° 0,3 mm 10 m/S 746 mmHg 69%
    12:00 +7°C° 1,3 mm 11 m/S 746 mmHg 71%
    13:00 +7°C° 1,3 mm 11 m/S 747 mmHg 73%
    14:00 +7°C° 1,3 mm 12 m/S 747 mmHg 76%
    15:00 +7°C° 0,3 mm 11 m/S 748 mmHg 72%
    16:00 +7°C° 0,3 mm 10 m/S 749 mmHg 69%
    17:00 +7°C° 0,3 mm 9 m/S 751 mmHg 65%
    18:00 +7°C° 0,2 mm 9 m/S 751 mmHg 68%
    19:00 +7°C° 0,2 mm 9 m/S 752 mmHg 70%
    20:00 +6°C° 0,2 mm 8 m/S 752 mmHg 73%
    21:00 +7°C° 0,2 mm 9 m/S 753 mmHg 74%
    22:00 +7°C° 0,2 mm 9 m/S 753 mmHg 75%
    23:00 +7°C° 0,2 mm 9 m/S 753 mmHg 76%
    Mehr zeigen